TITAN 3C TRANSTAGE DEB, 33513

Orbit data source: Space-Track

TITAN 3C TRANSTAGE DEB, 33513 is space debris in GEO originally from a launch on Thu, 26 Sep 1968 UTC launched from the Air Force Eastern Test Range (AFETR). Debris objects in space refer to the collection of defunct objects orbiting the Earth. Examples of debris include non-operational satellites, rocket bodies, and fragments generated from explosions, collisions, or faulty payload assembly.

Not visible in the next 10 days
Identifier
33513, 1968-081P
Orbit
GEO
Country
Flag of USUS
Related business
Manufacturer
Unknown
Mission
Spacecraft
Bus & Motor
Unknown
Mass
Unknown
Launch date (UTC)
1968-09-26 (58 years ago)
Launch vehicle
Unknown
Launch site
Air Force Eastern Test Range (AFETR)
Object type
Payload
Rocket body
Debris
Shape & HBR
Unknown shape, 1.1 m
Radar Cross Section
Medium (>0.1 m² and <1 m²)

Expand to show TLE details & history
Last TLE update: 19 hours ago

TLE from 19 hours ago
0 TITAN 3C TRANSTAGE DEB
1 33513U 68081P   26257.74286079 -.00000186  00000-0  00000-0 0  9999
2 33513   2.2290  52.0972 0083999 286.3956  49.0097  1.01393426 48778
Epoch: 2026-09-14T17:49Z
TLE epoch observation values (Epoch: 2026-09-14T17:49:43.172Z)
Latitude
-0.91462°
Longitude
127.09425°
Altitude
35,244.118 km
Speed
3.103 km/s
True Right ascension
01h 52m 58s
True Declination
0° 54' 49"
Sunlit
Object was in daylight at epoch
Visualization orbit readout
Latitude
Unknown
Longitude
Unknown
Altitude
Unknown
Speed
Unknown
Apparent Right ascension
Unknown
Apparent Declination
Unknown
Sunlit
N/A
Visualization observer readout
Local Sidereal Time
05:06:08
Azimuth
Unknown
Elevation
Unknown
Doppler factor
Unknown
Orbital elements
Apogee altitude
35,827.708 km
Perigee altitude
35,124.564 km
Semi-major axis
41,854.273 km
Eccentricity
0.0084
Inclination
2.229°
RAAN
52.0972°
Arg. of periapsis
286.3956°
True anomaly
49.74128°
Mean anomaly
49.0097°
Eccentric anomaly
49.37498°
Mean motion
0.25347 °/min
Orbital period
1,420.26 mins
BSTAR
0
Loading maneuver chart data...
Computing Atmospheric mass density...

Documentation

Showing up to 5 results
|